Indianapolis, IN

9:45 AM EST on November 21, 2019 (GMT -0500)
Indianapolis International

Weather History for KIND - September, 2019

Change the Weather History Date:

Wednesday, September 18, 2019

  Actual Average Record
Temperature  
Mean Temperature 75 °F 66 °F  
Max Temperature 87 °F 77 °F 95 °F (1953)
Min Temperature 62 °F 55 °F 39 °F (1959)
Degree Days  
Heating Degree Days 0 2  
Month to date heating degree days 0 19  
Since 1 July heating degree days 0 23  
Cooling Degree Days 10 4  
Month to date cooling degree days 160 100  
Year to date cooling degree days 1199 1021  
Growing Degree Days 24 (Base 50)    
Moisture  
Dew Point 58 °F    
Average Humidity 63    
Maximum Humidity 93    
Minimum Humidity 32    
Precipitation  
Precipitation 0.00 in 0.09 in 1.64 in (1952)
Month to date precipitation 0.01 1.84  
Year to date precipitation 36.56 31.17  
Snow  
Snow 0.00 in 0.00 in 0.00 in ()
Month to date snowfall 0.0 0.0  
Since 1 July snowfall 0.0 0.0  
Since 1 September snowfall 0.0 0.0  
Snow Depth 0.00 in    
Sea Level Pressure  
Sea Level Pressure 30.08 in    
Wind  
Wind Speed 7 mph (East)    
Max Wind Speed 15 mph    
Max Gust Speed 20 mph    
Visibility 10 miles    
Events      
T = Trace of Precipitation, MM = Missing Value Source: NWS Daily Summary

Daily Weather History Graph

Daily Weather History Graph

Search for Another Location

Airport or City:

Astronomy

Sep. 18, 2019 Rise Set
Actual Time 7:28 AM EDT 7:49 PM EDT
Civil Twilight 7:01 AM EDT 8:16 PM EDT
Nautical Twilight 6:30 AM EDT 8:47 PM EDT
Astronomical Twilight 5:57 AM EDT 9:20 PM EDT
Moon 10:23 PM EDT (9/18) 11:30 AM EDT (9/18)
Length of Visible Light 13h 14m
Length of Day
12h 20m
Waning Gibbous, 82% of the Moon is Illuminated
Sep 18
Waning Gibbous
Sep 21
Last Quarter
Sep 28
New
Oct 5
First Quarter
Oct 13
Full

Hourly Weather History & Observations

Time (EDT) Temp. Heat Index Dew Point Humidity Pressure Visibility Wind Dir Wind Speed Gust Speed Precip Events Conditions
12:54 AM 70.0 °F - 61.0 °F 73% 30.09 in 10.0 mi ENE 10.4 mph - N/A   Mostly Cloudy
1:54 AM 68.0 °F - 61.0 °F 78% 30.10 in 10.0 mi ENE 12.7 mph - N/A   Scattered Clouds
2:54 AM 66.9 °F - 61.0 °F 81% 30.10 in 10.0 mi East 9.2 mph - N/A   Scattered Clouds
3:54 AM 66.0 °F - 61.0 °F 84% 30.10 in 10.0 mi East 6.9 mph - N/A   Scattered Clouds
4:54 AM 66.0 °F - 60.1 °F 81% 30.09 in 10.0 mi East 6.9 mph - N/A   Scattered Clouds
5:54 AM 64.0 °F - 60.1 °F 87% 30.09 in 10.0 mi ENE 5.8 mph - N/A   Scattered Clouds
7:14 AM 63.0 °F - 60.1 °F 90% 30.11 in 10.0 mi NE 5.8 mph - N/A   Partly Cloudy
7:54 AM 63.0 °F - 60.1 °F 90% 30.10 in 9.0 mi Calm Calm - N/A   Clear
8:54 AM 66.9 °F - 60.1 °F 79% 30.11 in 10.0 mi East 4.6 mph - N/A   Partly Cloudy
9:54 AM 70.0 °F - 60.1 °F 71% 30.10 in 10.0 mi East 6.9 mph - N/A   Partly Cloudy
10:54 AM 73.9 °F - 61.0 °F 64% 30.11 in 10.0 mi Variable 5.8 mph - N/A   Partly Cloudy
11:54 AM 79.0 °F - 61.0 °F 54% 30.11 in 10.0 mi East 6.9 mph - N/A   Partly Cloudy
12:54 PM 82.0 °F 82.1 °F 59.0 °F 45% 30.11 in 10.0 mi NE 6.9 mph - N/A   Scattered Clouds
1:54 PM 82.9 °F 82.1 °F 55.9 °F 39% 30.10 in 10.0 mi ESE 6.9 mph - N/A   Scattered Clouds
2:54 PM 84.9 °F 83.7 °F 55.9 °F 37% 30.09 in 10.0 mi East 11.5 mph 16.1 mph N/A   Scattered Clouds
3:54 PM 84.9 °F 83.7 °F 55.9 °F 37% 30.07 in 10.0 mi ESE 8.1 mph - N/A   Scattered Clouds
4:54 PM 86.0 °F 84.2 °F 54.0 °F 33% 30.05 in 10.0 mi East 8.1 mph - N/A   Scattered Clouds
5:54 PM 84.9 °F 83.3 °F 54.0 °F 34% 30.04 in 10.0 mi East 9.2 mph - N/A   Scattered Clouds
6:54 PM 84.0 °F 82.6 °F 54.0 °F 35% 30.04 in 10.0 mi East 10.4 mph - N/A   Partly Cloudy
7:54 PM 81.0 °F 80.5 °F 54.0 °F 39% 30.04 in 10.0 mi East 8.1 mph - N/A   Partly Cloudy
8:54 PM 78.1 °F - 55.0 °F 45% 30.05 in 10.0 mi East 4.6 mph - N/A   Partly Cloudy
9:54 PM 75.0 °F - 55.0 °F 50% 30.06 in 10.0 mi ENE 4.6 mph - N/A   Partly Cloudy
10:54 PM 72.0 °F - 55.9 °F 57% 30.07 in 10.0 mi NE 8.1 mph - N/A   Partly Cloudy
11:54 PM 72.0 °F - 55.9 °F 57% 30.06 in 10.0 mi East 6.9 mph - N/A   Partly Cloudy